Location: Altamira
(10.5079°N, 66.8544°W)
Time: 19:52:49
(UTC+00:00)

Hubble Space Telescope - Pass Details

Date: 08 December 2021
Orbit: 534 x 538 km, 28.5° (Epoch: 16 January)

Event Time Altitude Azimuth Distance (km) Brightness Sun altitude
Rises 22:45:11 0° 221° (SW) 2,669 5.6 -9.9°
Reaches altitude 10° 22:47:40 10° 209° (SSW) 1,779 4.2 -10.4°
Maximum altitude 22:51:13 28° 150° (SSE) 1,015 2.1 -11.3°
Enters shadow 22:53:59 14° 96° (E) 1,520 2.5 -11.9°
